Weather History for Greenville, AL

Change the Weather History Date:

Monday, October 7, 2013

  Actual Average Record
Temperature  
Mean Temperature 67 °F -  
Max Temperature 75 °F 80 °F 96 °F (1990)
Min Temperature 57 °F 57 °F 41 °F (1932)
Cooling Degree Days 2    
Growing Degree Days 17 (Base 50)    
Moisture  
Dew Point 57 °F    
Average Humidity 76    
Maximum Humidity 94    
Minimum Humidity 44    
Precipitation  
Precipitation 0.21 in - - ()
Sea Level Pressure  
Sea Level Pressure 29.90 in    
Wind  
Wind Speed 9 mph (NNW)    
Max Wind Speed 16 mph    
Max Gust Speed 23 mph    
Visibility 9 miles    
Events Rain , Hail    
Averages and records for this station are not official NWS values.
T = Trace of Precipitation, MM = Missing Value Source: NWS Daily Summary

Daily Weather History Graph

Daily Weather History Graph

Search for Another Location

Airport:

Trip Planner

Search our weather history database for the weather conditions in past years. The results will help you decide how hot, cold, wet, or windy it might be!

Date:

Astronomy

Oct. 07, 2013 Rise Set
Actual Time 6:44 AM CDT 6:23 PM CDT
Civil Twilight 6:19 AM CDT 6:47 PM CDT
Nautical Twilight 5:51 AM CDT 7:16 PM CDT
Astronomical Twilight 5:23 AM CDT 7:44 PM CDT
Moon 9:22 AM CDT (10/7) 8:19 PM CDT (10/7)
Length of Visible Light 12h 27m
Length of Day
11h 39m
Waxing Crescent, 9% of the Moon is Illuminated
Oct 7
Waxing Crescent
Oct 11
First Quarter
Oct 18
Full
Oct 26
Last Quarter
Nov 3
New

Hourly Weather History & Observations

Time (CDT) Temp. Dew Point Humidity Pressure Visibility Wind Dir Wind Speed Gust Speed Precip Events Conditions
12:12 AM 71.6 °F 69.8 °F 94% 29.87 in 6.0 mi WNW 5.8 mph - 0.01 in Rain Light Rain
12:23 AM 71.6 °F 69.8 °F 94% 29.87 in 1.8 mi WNW 8.1 mph - 0.08 in Rain Heavy Rain
12:38 AM 68.0 °F 66.2 °F 94% 29.87 in 2.5 mi NW 6.9 mph - 0.16 in Rain Rain
12:45 AM 66.2 °F 64.4 °F 94% 29.87 in 5.0 mi NW 12.7 mph 16.1 mph 0.17 in Rain Light Rain
12:56 AM 66.0 °F 64.0 °F 93% 29.86 in 5.0 mi NW 9.2 mph 16.1 mph 0.18 in Rain Rain
1:41 AM 62.6 °F 60.8 °F 94% 29.89 in 10.0 mi NNW 16.1 mph 23.0 mph 0.03 in Rain Light Rain
1:56 AM 62.1 °F 60.1 °F 93% 29.88 in 8.0 mi NNW 15.0 mph 23.0 mph 0.03 in Rain Light Rain
2:30 AM - - N/A% - - North - - N/A Hail Hail
2:56 AM 61.0 °F 57.9 °F 90% 29.87 in 10.0 mi North 13.8 mph - 0.00 in   Overcast
3:04 AM 60.8 °F 57.2 °F 88% 29.88 in 10.0 mi North 11.5 mph - N/A   Overcast
3:56 AM 61.0 °F 57.0 °F 87% 29.86 in 10.0 mi North 12.7 mph 19.6 mph N/A   Overcast
4:56 AM 60.1 °F 57.0 °F 90% 29.87 in 10.0 mi North 8.1 mph - N/A   Mostly Cloudy
5:19 AM 60.8 °F 57.2 °F 88% 29.89 in 10.0 mi North 9.2 mph - N/A   Overcast
5:56 AM 60.1 °F 57.0 °F 90% 29.88 in 10.0 mi North 8.1 mph - N/A   Mostly Cloudy
6:56 AM 59.0 °F 55.9 °F 90% 29.90 in 10.0 mi North 6.9 mph - N/A   Clear
7:56 AM 61.0 °F 55.9 °F 83% 29.91 in 10.0 mi North 8.1 mph - N/A   Clear
8:56 AM 63.0 °F 55.0 °F 75% 29.92 in 10.0 mi North 9.2 mph - N/A   Clear
9:56 AM 64.9 °F 54.0 °F 68% 29.93 in 10.0 mi North 10.4 mph - N/A   Clear
10:56 AM 69.1 °F 55.0 °F 61% 29.92 in 10.0 mi North 10.4 mph - N/A   Clear
11:56 AM 70.0 °F 54.0 °F 57% 29.92 in 10.0 mi North 12.7 mph - N/A   Clear
12:56 PM 73.0 °F 55.9 °F 55% 29.91 in 10.0 mi North 10.4 mph 18.4 mph N/A   Clear
1:56 PM 73.9 °F 55.0 °F 52% 29.88 in 10.0 mi NNW 11.5 mph 20.7 mph N/A   Clear
2:56 PM 75.0 °F 54.0 °F 48% 29.88 in 10.0 mi NNW 10.4 mph 20.7 mph N/A   Clear
3:56 PM 75.9 °F 53.1 °F 45% 29.88 in 10.0 mi North 10.4 mph 19.6 mph N/A   Clear
4:56 PM 75.0 °F 52.0 °F 44% 29.88 in 10.0 mi North 12.7 mph - N/A   Clear
5:56 PM 71.1 °F 54.0 °F 55% 29.91 in 10.0 mi NNW 9.2 mph - N/A   Clear
6:56 PM 66.9 °F 54.0 °F 63% 29.93 in 10.0 mi NNW 5.8 mph - N/A   Clear
7:56 PM 64.0 °F 55.0 °F 73% 29.94 in 10.0 mi North 4.6 mph - N/A   Clear
8:56 PM 62.1 °F 53.1 °F 72% 29.97 in 10.0 mi NNW 6.9 mph - N/A   Clear
9:56 PM 61.0 °F 53.1 °F 75% 29.98 in 10.0 mi NNW 6.9 mph - N/A   Clear
10:56 PM 60.1 °F 52.0 °F 75% 29.98 in 10.0 mi North 5.8 mph - N/A   Clear
11:56 PM 57.9 °F 51.1 °F 78% 29.97 in 10.0 mi North 4.6 mph - N/A   Clear